SCP
2 2 2 2 2 3 3 2 2 2 1 2 2 2 2 1 2 2 2 1 0 0 0 0 0 0 0 0 0 0 0 0 1 1 1 1 1 1
2 2 2 2 3 3 3 2 2 2 2 2 2 2 2 2 2 2 2 1 1 0 0 0 0 0 0 0 0 0 0 0 0 0 0 0 1 1
3 3 3 3 3 3 2 2 2 2 2 1 1 1 2 2 2 2 2 2 1 1 0 0 0 0 0 0 0 0 0 0 0 0 0 0 0 1
4 4 3 3 3 2 2 2 2 2 2 1 1 2 2 2 2 2 2 2 2 1 0 0 0 0 0 0 0 0 0 0 0 0 0 0 0 0
4 4 3 3 3 3 3 3 3 3 3 2 2 3 3 2 2 2 2 2 2 1 1 0 0 0 0 0 0 0 0 0 0 0 0 0 0 0
4 4 4 4 4 4 5 5 5 5 5 4 3 4 4 4 3 3 3 4 3 3 2 1 1 0 0 0 0 0 0 0 0 0 0 0 0 0
5 5 4 4 4 5 6 6 7 8 8 7 6 6 7 7 7 6 6 6 5 4 3 3 2 2 1 1 0 0 0 0 0 0 0 0 0 0
5 6 5 5 5 5 5 6 6 8 9 9 9 10 11 12 11 10 9 7 5 4 4 4 3 3 3 2 1 0 0 0 0 0 0 0 0 0
5 6 6 6 6 6 6 6 6 6 7 9 11 12 14 15 15 13 12 10 7 5 5 5 4 3 3 3 2 1 0 0 0 0 0 0 0 0
5 6 7 7 7 7 7 8 8 7 6 7 9 11 12 15 15 14 13 11 9 7 7 6 5 4 3 3 2 1 0 0 0 0 0 0 0 0
6 7 8 7 6 6 7 9 9 7 6 6 7 8 9 10 12 12 12 11 9 8 8 8 7 5 4 4 3 1 0 0 0 0 0 0 0 0
9 9 9 7 5 4 6 7 7 7 6 7 7 8 9 9 9 10 11 11 10 8 8 10 8 6 5 4 3 1 1 0 0 0 0 0 0 0
9 9 8 5 3 2 3 5 5 5 6 8 9 10 11 11 10 11 12 13 12 8 8 10 8 6 5 4 3 2 2 1 1 0 0 0 0 0
6 6 5 3 2 1 1 2 2 3 5 7 8 9 10 11 11 12 13 13 11 9 8 8 7 5 4 4 4 4 4 3 2 1 1 0 0 0
3 3 2 1 1 1 1 0 1 2 3 4 5 6 8 10 12 12 12 10 8 8 7 6 6 5 4 3 4 5 6 5 4 3 3 2 1 0
2 2 2 1 1 1 1 1 1 2 2 2 3 5 8 12 14 12 9 6 6 5 5 5 5 5 5 4 4 4 5 5 5 5 5 5 3 2
2 2 2 2 2 2 2 2 2 2 2 2 2 4 8 12 12 10 7 5 4 4 4 4 5 6 6 5 4 3 3 4 4 4 5 5 4 3
2 2 3 3 3 3 3 3 3 3 2 2 2 3 6 8 8 7 5 4 4 4 4 4 5 5 5 5 4 3 3 3 3 4 4 5 4 4
2 2 2 2 2 2 3 4 4 3 3 2 2 2 3 4 4 4 4 3 3 3 4 4 4 4 3 3 3 3 3 4 4 4 4 4 3 3
1 2 2 2 2 2 2 3 3 3 4 4 3 3 2 2 3 3 3 3 3 3 3 4 3 3 2 3 3 3 2 3 4 4 3 3 2 2
1 1 2 2 2 2 2 2 3 3 4 5 4 3 3 3 3 3 2 2 3 3 4 4 3 3 2 3 4 3 2 2 3 3 2 2 1 1
1 1 1 2 2 3 3 3 3 4 4 4 4 4 3 3 3 3 2 2 3 3 4 4 4 3 2 3 3 2 2 2 2 2 1 1 1 1
1 1 1 1 2 3 3 3 4 4 5 4 4 4 3 3 3 3 3 3 3 3 4 4 4 3 2 2 2 2 2 2 2 1 1 0 0 0
Wind_Speed
3 3 4 3 4 4 4 5 5 5 4 3 3 3 3 3 4 5 4 7 8 7 7 7 7 7 7 6 6 5 5 5 5 5 6 5 6 7
2 3 3 3 3 3 4 4 4 5 4 2 3 3 3 3 5 5 4 7 8 8 8 8 8 8 7 7 7 7 6 6 6 6 6 6 6 6
3 3 3 4 3 3 3 3 4 4 5 3 3 3 3 4 3 4 5 6 6 9 9 9 8 8 8 7 7 7 7 6 6 6 6 6 6 6
3 3 3 3 3 3 3 4 4 4 5 5 4 4 5 5 4 5 5 5 4 8 9 9 9 8 8 8 8 7 7 7 6 6 6 6 6 6
3 3 3 3 3 3 4 4 4 4 4 5 4 3 4 4 4 5 5 3 5 7 10 10 9 9 9 8 7 7 7 7 6 6 6 6 5 6
3 3 3 3 3 4 4 4 4 4 4 5 4 4 4 4 4 4 4 4 4 4 5 6 9 11 10 10 9 8 8 7 7 7 6 6 5 5
4 4 3 3 3 4 4 3 4 4 4 4 4 4 4 4 5 4 4 4 4 4 4 5 6 7 9 11 11 10 9 8 8 7 7 7 6 6
4 4 4 4 4 4 4 4 4 5 5 5 4 4 4 5 4 4 4 5 4 3 4 5 5 5 5 6 8 10 10 9 8 8 7 7 7 7
4 5 5 3 3 4 4 6 6 7 7 7 6 6 5 4 4 6 5 5 5 3 4 6 5 5 5 5 10 10 10 9 8 8 8 7 7 7
5 5 5 4 3 3 5 4 5 5 6 7 6 6 5 4 5 6 5 6 6 5 5 6 5 5 4 4 11 11 10 9 9 8 8 7 7 7
5 5 5 5 1 3 5 5 5 5 5 6 6 6 6 6 6 5 6 6 6 5 5 5 5 4 4 4 7 12 11 10 9 9 8 8 7 7
4 5 4 4 2 3 5 5 6 5 6 5 6 7 8 8 8 8 7 7 6 5 4 5 5 4 4 4 3 5 6 9 10 9 9 8 7 6
4 4 2 3 3 5 6 6 5 6 6 6 6 6 6 6 6 7 7 7 6 6 3 4 4 4 4 3 3 3 4 4 5 6 8 8 8 7
4 4 1 1 3 5 6 5 6 6 6 5 5 5 5 5 5 5 6 7 7 7 5 4 4 4 4 4 4 3 3 3 4 4 4 7 8 9
4 3 3 3 5 5 6 6 6 6 6 6 6 5 5 5 5 5 6 6 7 7 6 6 6 5 5 5 4 3 3 3 3 3 3 4 4 5
3 2 4 6 6 5 4 5 5 5 6 6 6 6 5 5 5 5 5 4 5 5 5 6 6 6 6 6 4 4 3 3 3 3 3 3 4 4
4 4 3 3 3 3 3 3 4 4 5 6 6 5 5 5 5 5 4 5 5 5 4 4 4 4 5 5 5 5 4 3 3 3 3 3 4 4
4 4 3 3 3 3 3 3 4 4 4 5 5 5 5 5 4 4 4 4 5 5 4 3 4 4 4 3 4 5 4 4 3 3 4 4 4 4
4 4 4 4 4 4 4 4 4 4 3 4 5 5 5 5 4 4 4 4 4 4 4 3 4 4 5 5 4 4 4 3 3 3 4 4 4 4
4 4 4 4 4 4 4 4 4 4 3 4 4 5 5 4 4 4 4 4 4 4 4 3 3 4 5 4 4 3 5 4 4 4 4 3 2 1
4 4 4 4 4 4 4 4 5 4 4 4 4 4 4 4 4 4 4 3 4 4 4 3 3 4 3 3 3 3 2 3 3 3 4 4 4 4
4 4 4 4 4 4 4 4 5 4 3 4 4 4 4 4 5 5 4 4 4 4 4 3 3 3 3 4 4 3 2 2 2 3 2 3 3 4
4 4 4 4 4 4 4 4 5 4 4 4 4 4 4 4 4 4 4 4 4 4 4 3 3 3 3 4 3 3 4 3 3 4 3 3 4 3
Wind_Direction
250 248 260 263 261 261 258 260 261 262 244 216 226 209 211 209 172 206 209 172 185 197 205 202 198 199 202 204 204 207 211 216 219 222 225 231 231 231
256 261 263 265 266 263 264 256 251 257 265 244 226 216 213 213 183 217 216 168 186 196 199 199 198 199 201 203 204 207 211 212 213 218 224 228 236 235
251 245 255 270 270 261 256 251 245 242 247 249 240 225 211 236 200 223 220 214 189 185 192 196 198 200 203 205 206 208 210 213 218 222 229 231 233 234
250 255 258 258 264 267 261 250 245 241 240 240 233 222 217 225 222 232 230 219 213 172 185 194 199 200 202 206 207 207 209 212 218 224 231 236 234 234
255 256 265 266 259 265 260 251 248 243 236 236 235 223 220 220 222 229 233 230 233 178 182 190 196 199 201 203 206 206 208 211 215 220 224 228 232 235
261 257 259 263 273 278 260 247 247 247 234 237 235 225 218 212 223 230 226 213 234 217 194 190 188 195 202 204 205 206 207 211 213 217 217 218 225 234
263 262 261 266 297 292 288 270 246 238 239 238 237 233 223 213 225 233 236 234 222 229 219 205 197 205 199 201 204 205 206 209 212 214 216 216 221 227
266 266 256 234 239 243 266 271 268 250 248 248 247 240 234 232 235 238 240 243 237 206 237 234 217 219 214 210 181 186 199 206 210 213 216 219 222 223
269 268 271 272 264 262 238 231 241 248 252 258 255 254 246 243 249 246 245 252 258 241 233 246 225 229 225 193 166 182 197 206 211 214 216 218 221 223
264 264 268 269 272 286 274 263 256 245 241 240 253 259 260 260 246 250 254 245 249 243 233 249 235 232 229 200 166 181 194 204 210 213 216 216 218 221
260 258 262 261 260 276 266 264 267 265 240 230 245 259 269 259 249 247 243 245 247 236 219 242 248 241 230 218 176 178 191 198 204 208 211 211 213 216
257 247 231 250 247 246 256 260 261 269 277 256 233 238 243 237 224 235 246 246 250 248 215 225 243 244 241 221 209 186 197 196 201 205 206 208 208 223
273 264 243 180 235 242 253 258 264 278 273 266 259 251 244 238 229 228 240 251 252 255 246 222 245 240 247 247 223 214 215 207 200 201 199 200 202 219
279 282 303 149 248 251 251 260 265 266 261 260 259 258 256 251 246 241 236 243 253 260 271 253 248 250 252 254 248 221 225 220 214 214 208 184 198 213
287 310 299 260 248 244 235 243 248 249 252 255 256 255 255 257 258 247 232 232 242 246 244 236 242 246 249 254 253 240 238 230 217 216 215 210 214 210
278 269 236 233 238 256 254 232 239 252 261 264 265 262 257 253 249 248 245 239 240 241 230 226 231 240 246 248 245 242 238 236 220 219 227 230 224 222
296 277 275 272 261 258 258 257 256 252 251 258 264 268 265 258 251 246 248 250 245 248 242 214 216 226 240 247 241 235 233 229 225 215 222 232 231 226
266 265 268 273 275 275 272 262 255 257 260 263 267 269 268 266 263 253 242 244 250 248 246 235 215 216 228 235 237 238 236 231 223 212 229 233 233 227
244 261 267 269 270 271 275 276 273 269 270 271 272 270 270 268 265 260 251 246 251 256 253 247 233 225 229 238 224 211 231 229 225 224 224 232 238 231
251 264 272 278 278 279 280 282 284 280 270 268 268 271 269 265 264 261 255 254 255 255 253 247 244 237 236 248 259 237 201 222 221 225 229 234 240 208
265 270 273 273 274 278 285 289 288 287 289 282 273 271 269 264 261 262 261 252 258 258 257 256 249 228 243 246 248 245 212 196 225 227 227 226 226 223
270 275 278 281 279 277 280 281 280 278 277 276 279 275 270 268 265 264 267 263 256 254 257 261 244 232 229 223 231 233 232 204 188 188 221 262 245 235
275 280 284 284 281 279 279 282 282 281 280 280 278 275 275 270 269 270 267 263 260 256 255 254 252 242 235 227 227 223 215 216 216 206 206 205 217 220